Location: Chateh
(58.6667°N, 118.6000°W)
Time: 17:28:34
(UTC+00:00)

Gurwin Techsat 1B - Pass Details

Date: 05 December 2023
Orbit: 810 x 813 km, 98.9° (Epoch: 21 February)

Event Time Altitude Azimuth Distance (km) Brightness Sun altitude
Rises 14:55:51 0° 20° (NNE) 3,352 11.8 -10.3°
Reaches altitude 10° 15:00:23 10° 344° (NNW) 2,417 10.7 -9.8°
Maximum altitude 15:01:28 11° 332° (NNW) 2,372 10.5 -9.7°
Drops below altitude 10° 15:02:34 10° 320° (NW) 2,416 10.5 -9.5°
Enters shadow 15:02:39 10° 319° (NW) 2,424 10.5 -9.5°
